Location: Béaulencourt
(50.0796°N, 2.8795°E)
Time: 00:38:29
(UTC+00:00)

SJ-12 - Pass Details

Date: 20 January 2026
Orbit: 514 x 525 km, 97.8° (Epoch: 17 February)

Event Time Altitude Azimuth Distance (km) Brightness Sun altitude
Rises 07:00:32 0° 9° (N) 2,672 7.2 -6.0°
Reaches altitude 10° 07:02:41 10° 5° (N) 1,776 6.2 -5.7°
Maximum altitude 07:06:25 53° 289° (WNW) 652 3.9 -5.2°
Drops below altitude 10° 07:10:06 10° 212° (SSW) 1,755 6.3 -4.6°
Sets 07:12:13 0° 207° (SSW) 2,635 7.3 -4.3°
